Location: Harmony
(28.2000°N, 81.1500°W)
Time: 01:57:51
(UTC-04:00)

Daily predictions for brighter satellites

Satellite Brightness Start Highest point End
(mag) Time Altitude Azimuth Time Altitude Azimuth Time Altitude Azimuth
Cosmos 2219 Rocket 3.3 00:02:57 10° NNW 00:06:29 39° NW 00:06:29 39° NW
SeaSat 1 4.5 00:12:26 22° NNE 00:12:26 22° NNE 00:14:38 10° N
Lacrosse 4 Rocket 4.4 00:23:48 10° N 00:24:39 14° N 00:24:39 14° N
Cosmos 2237 Rocket 3.8 00:33:06 10° NNW 00:36:00 30° NW 00:36:00 30° NW
COSMOS 2455 4.2 00:46:06 10° NNW 00:49:34 36° N 00:49:34 36° N
Cosmos 2263 Rocket 4.5 01:19:12 16° NE 01:19:12 16° NE 01:20:31 10° NE
ATLAS 3B R/B 3.7 01:13:12 10° NNW 01:17:16 39° NW 01:17:16 39° NW
SL-16 R/B 4.3 01:25:56 10° NW 01:27:44 20° NW 01:27:44 20° NW
CZ-4C R/B 4.1 01:35:53 10° N 01:42:27 34° NE 01:43:31 33° ENE
NOSS 3-2 (A) 4.4 02:17:13 10° NNW 02:24:46 56° ENE 02:25:29 54° ENE
Cosmos 1844 Rocket 3.8 02:58:18 40° ENE 02:58:18 40° ENE 03:02:13 10° NNE
Cosmos 2263 Rocket 4.0 03:00:53 23° NW 03:00:53 23° NW 03:04:02 10° N
Cosmos 2278 Rocket 3.3 03:18:51 36° E 03:18:51 36° E 03:23:32 10° NE
COSMOS 2406 3.9 03:16:25 10° N 03:22:01 50° ENE 03:22:28 49° E
USA 234 3.9 03:21:37 10° ESE 03:27:54 53° NE 03:34:12 10° NNW
SL-08 R/B 4.3 03:32:29 44° N 03:32:29 44° N 03:35:49 10° NNW
CZ-4C R/B 3.8 03:24:05 10° NW 03:28:37 35° WNW 03:28:37 35° WNW
Resurs 1-4 Rocket 3.2 03:31:24 10° NNE 03:36:13 35° E 03:36:38 34° ESE
ATLAS 2A CENTAUR R/B 3.1 03:38:19 62° WSW 03:39:42 77° S 04:10:10 10° ESE
Cosmos 1452 Rocket 4.3 03:42:56 42° NW 03:42:56 42° NW 03:46:52 10° N
Cosmos 1934 Rocket 3.8 03:42:14 86° SW 03:42:21 87° W 03:48:34 10° N
CENTAUR R/B 4.1 03:39:23 10° NNW 03:47:01 45° ENE 03:54:51 10° SE
ARIANE 5 R/B 2.7 03:43:31 10° NNE 03:48:13 66° E 03:48:13 66° E
NOSS 3-2 (C) 4.3 03:44:36 10° NW 03:51:09 47° W 03:51:09 47° W
Cosmos 1420 Rocket 4.0 03:53:20 77° NNW 03:53:20 77° NNW 03:58:18 10° NNE
ADEOS 4.0 03:50:14 10° N 03:54:43 52° NW 03:54:43 52° NW
Cosmos 1536 3.8 03:57:35 46° NNE 03:57:35 46° NNE 04:00:30 10° N
Cosmos 1461 3.5 04:04:34 60° NNW 04:04:34 60° NNW 04:08:41 10° NNE
COSMOS 2487 4.5 04:01:24 10° NNE 04:04:30 26° ENE 04:05:15 24° E
Cosmos 489 Rocket 4.4 03:59:00 10° NNW 04:05:15 87° ENE 04:07:26 43° SSE
SL-16 R/B 3.0 04:01:42 20° SSE 04:06:02 60° ENE 04:12:09 10° N
Skynet4D Del rocket 3.3 04:06:31 78° SSE 04:06:31 78° SSE 04:11:54 10° E
UNKNOWN OBJECT B 3.6 04:04:34 10° NNE 04:08:31 46° E 04:08:32 46° E
Okean O Rocket 3.2 04:09:23 10° NE 04:13:08 28° E 04:14:39 22° SE
Cosmos 1605 Rocket 3.9 04:15:15 56° SW 04:16:17 65° W 04:22:28 10° N
Meteor 2-15 Rocket 4.4 04:12:55 10° N 04:19:05 85° E 04:22:02 33° S
Meteor 1-19 Rocket 4.2 04:13:17 10° N 04:19:08 90° ESE 04:21:24 40° S
Cosmos 1140 Rocket 3.6 04:14:38 10° N 04:19:45 69° ENE 04:22:38 26° SSE
EO 1 Del DPAF 3.4 04:21:46 72° E 04:21:51 73° ENE 04:25:44 10° N
Cosmos 1455 Rocket 3.2 04:21:55 62° SSE 04:22:31 73° E 04:26:58 10° N
Cosmos 724 4.3 04:19:06 10° NNW 04:25:13 68° WSW 04:28:29 29° S
Meteor 1-11 Rocket 4.4 04:25:35 39° W 04:26:05 39° W 04:31:39 10° N
Cosmos 2123 Rocket 4.0 04:21:38 10° NNW 04:27:52 63° W 04:29:54 42° SSW
Cosmos 1850 Rocket 4.3 04:26:14 10° N 04:31:28 67° ENE 04:36:42 10° SSE
Cosmos 1025 Rocket 3.1 04:27:23 10° NNW 04:31:24 58° W 04:31:24 58° W
CZ-2D R/B 2.2 04:26:19 10° N 04:31:42 62° WNW 04:33:03 47° SW
Cosmos 1741 Rocket 4.3 04:28:01 10° N 04:33:16 67° ENE 04:38:27 10° SSE
Hubble Space Telescope 3.2 04:42:16 11° SSE 04:42:16 11° SSE 04:42:27 10° SSE
Cosmos 1400 Rocket 3.6 04:40:16 35° WNW 04:40:16 35° WNW 04:43:23 10° NNW
Cosmos 1844 Rocket 4.5 04:39:58 16° WNW 04:40:52 16° WNW 04:44:20 10° NNW
APEX 2.8 04:46:28 60° N 04:46:28 60° N 04:49:01 10° NNE
Yuri Rocket 3.3 04:43:14 27° W 04:46:23 90° SSW 04:51:00 10° E
Cosmos 1544 Rocket 4.3 04:47:56 34° W 04:48:05 34° W 04:52:07 10° NNW
PAYLOAD B 4.4 04:47:04 10° NNE 04:52:40 73° ESE 04:56:50 18° S
Cosmos 2173 Rocket 3.9 04:49:06 22° S 04:53:15 88° W 04:59:24 10° N
USA 129 3.4 04:54:29 33° NNE 04:54:29 33° NNE 04:55:58 10° N
Meteor 1-23 Rocket 4.3 04:51:47 10° NNW 04:57:20 57° W 05:00:56 22° SSW
Cosmos 1802 Rocket 3.9 04:55:14 17° S 05:00:06 89° W 05:06:15 10° N
Cosmos 2297 4.0 04:58:40 30° SW 05:01:08 49° WNW 05:06:38 10° N
Sakura Rocket 4.4 05:00:33 28° SW 05:01:22 29° SSW 05:07:07 10° SE
Cosmos 2278 Rocket 3.6 05:00:42 20° W 05:02:29 23° WNW 05:06:53 10° NNW
UNK 4.4 05:02:45 31° SW 05:03:43 34° W 05:07:56 10° NNW
Centaur AC-125 2.4 05:03:18 39° WSW 05:04:15 61° S 05:11:36 10° ESE
Cosmos 1315 Rocket 3.7 05:05:42 29° W 05:06:26 31° W 05:10:04 10° NNW
CZ-4B DEB 4.2 05:02:25 10° NNE 05:08:01 87° ESE 05:12:50 14° SSW
Cosmos 1459 Rocket 4.1 05:04:45 20° SSW 05:09:14 61° W 05:15:30 10° N
Delta 2 Rocket 4.3 05:05:48 20° W 05:10:03 43° SSW 05:15:46 10° SE
Tiangong 1 2.1 05:11:17 28° S 05:11:17 28° S 05:13:11 10° SSE
USA 234 3.8 05:05:16 10° S 05:10:55 31° SW 05:16:35 10° WNW
Centaur D-1AR AC-48 3.5 05:11:40 20° SSW 05:11:40 20° SSW 05:14:36 10° SSE
CZ-4B R/B 3.1 05:06:59 10° N 05:11:31 89° WNW 05:14:55 17° SSW
Cosmos 2100 Rocket 4.2 05:07:42 21° SSW 05:11:46 53° W 05:17:54 10° N
Meteor 1-12 Rocket 4.3 05:07:38 18° SSW 05:12:05 68° W 05:17:53 10° N
ATLAS 5 CENTAUR R/B 2.9 05:06:21 10° NNW 05:12:31 68° ENE 05:18:59 10° SE
OTV 4 0.8 05:14:30 39° SSW 05:14:31 39° SSW 05:17:17 10° SE
Resurs 1-4 Rocket 3.6 05:11:52 10° NNW 05:15:45 21° WNW 05:17:43 17° W
BREEZE-M DEB 3.6 05:16:21 46° SSW 05:16:49 65° SE 05:19:31 10° NE
MOZ.5/SAFIR/RUBIN 5/SL-8 3.9 05:13:42 10° SSE 05:18:28 82° ENE 05:23:15 10° N
Cosmos 614 Rocket 4.2 05:13:35 10° NNW 05:18:28 46° WSW 05:23:18 10° S
Fermi 3.8 05:19:01 24° WSW 05:21:19 59° S 05:25:20 10° E
Cosmos 1975 3.1 05:19:23 22° SSW 05:21:40 48° W 05:25:32 10° N
SL-08 R/B 4.5 05:15:36 10° S 05:21:48 86° W 05:28:09 10° N
BREEZE M DEB (TANK) 4.2 05:12:50 10° NW 05:24:20 68° NE 05:27:54 10° ESE
CZ-4B R/B 3.5 05:19:53 10° N 05:25:25 56° WNW 05:30:16 13° SSW
Cosmos 1346 Rocket 3.5 05:21:51 10° N 05:25:49 56° E 05:29:44 10° SSE
CZ-3C R/B 2.0 05:25:10 20° SSW 05:26:45 27° SSE 05:34:19 10° ESE
Cosmos 2082 Rocket 2.6 05:22:20 10° NNW 05:28:01 68° ENE 05:33:40 10° SSE
Cosmos 1743 3.3 05:29:25 10° S 05:33:10 57° E 05:36:55 10° NNE
Thor Agena Rocket 3.5 05:29:55 10° S 05:35:06 70° WSW 05:40:14 10° NNW
Timation 1 Rocket 4.5 05:31:35 13° SSW 05:36:50 60° WNW 05:42:47 10° NNE
CENTAUR R/B 3.6 05:30:26 10° NW 05:37:37 35° WSW 05:44:53 10° S
Okean-O 2.6 05:33:47 10° N 05:38:13 84° WNW 05:42:38 10° SSW
Timation 2 Rocket 4.0 05:33:10 10° NNW 05:38:58 50° WSW 05:44:42 10° S
ADEOS II 2.5 05:35:12 10° NNE 05:40:25 64° ESE 05:45:37 10° S
Cosmos 1500 3.5 05:37:57 10° SSW 05:41:38 50° W 05:45:25 10° N
Tsikada Rocket 4.3 05:36:37 10° N 05:42:47 72° E 05:48:57 10° SSE
ASC 2 Rocket 3.2 05:39:10 13° WSW 05:42:53 47° S 05:46:45 10° ESE
PSLV R/B 3.6 05:41:06 14° WSW 05:43:48 54° NNW 05:47:05 10° NE
Cosmos 1726 Rocket 4.1 05:39:48 10° S 05:44:11 63° E 05:48:33 10° NNE
Cosmos 1515 3.6 05:42:57 10° N 05:46:45 72° W 05:50:33 10° S
Cosmos 2058 Rocket 4.1 05:42:36 10° SSE 05:46:47 47° E 05:50:58 10° NNE
Meteor PRIRODA 3.8 05:43:48 10° NNE 05:47:29 75° E 05:51:07 10° S
GPS 2-15 Rocket1 4.3 05:44:23 13° WSW 05:47:54 27° S 05:52:00 10° SE
Cosmos 1602 Rocket 4.3 05:44:47 10° NNW 05:48:39 33° W 05:52:33 10° SSW
ADEOS Rocket 3.4 05:43:37 10° NNE 05:49:07 60° ESE 05:55:02 10° S
Okean O Rocket 3.3 05:46:23 10° NNW 05:49:14 17° WNW 05:52:05 10° WSW
SL-16 R/B 4.0 05:46:47 11° SW 05:49:53 15° W 05:53:22 10° WNW
Cosmos 1066 Rocket 4.2 05:48:27 10° N 05:53:55 89° E 05:59:16 10° S
Feng Yun 1-1 Rocket 4.4 05:49:42 10° N 05:55:34 70° WNW 06:01:18 10° SSW
CZ-3 R/B 4.5 05:56:01 10° S 05:57:48 10° S 05:59:21 10° SSE
Ariane Rocket 4.2 05:53:41 10° NNE 05:58:30 43° E 06:03:16 10° S
Skynet4D Del rocket 3.7 05:53:29 10° W 05:58:49 62° S 06:04:35 10° ESE
Atlas Centaur 2 3.7 05:52:56 10° SW 06:01:01 47° SSE 06:08:32 10° E
USA 116 3.7 05:58:57 10° S 06:03:14 83° WSW 06:07:01 10° NNW
